Starlink 33869

operational
NORAD ID: 63790 Int'l Des: 2025-091 Owner: SPXS Country: US Constellation: starlink
LEOCIRCULAR

Starlink 33869について

説明を読み込み中...

リアルタイム位置

3D地球を読み込み中...

次回通過

高度履歴

Altitude vs Time

uPlot chart will show altitude changes over time

軌道要素

1 63790U 25091R 25350.76991463 .00021339 00000-0 78245-3 0 9999
2 63790 42.9986 160.5545 0001675 273.2494 86.8166 15.27590529 36178
Epoch: Dec 16, 2025 • Age: 25 hours

現在のステータス

高度 491.3 km
速度 7.62 km/s
衛星直下点 -33.53°S, 92.8°E
打ち上げ日 May 2, 2025
運用期間 0.6 years
タイプ internet

技術仕様

分類 Payload
質量 575.00 kg
乾燥質量 530.00 kg
総質量 575.00 kg
長さ 0.30 m
直径 4.10 m
スパン 29.00 m
形状 Box + pan
製造者 SPXS
バスタイプ Starlink V2MO
フェーズステータス In Orbit
所有者/国 SPXS/US

大規模コンステレーション

Loading constellations...